�������l�o���
Date,Time,MP-1(��Sv/h),MP-2(��Sv/h),MP-3(��Sv/h),MP-4(��Sv/h),MP-5(��Sv/h),MP-6(��Sv/h),MP-7(��Sv/h),MP-8(��Sv/h),����,����(m/s),���J
2017/06/26,00:00,0.991,1.573,1.048,1.880,1.284,0.529,0.969,0.896,�k��,6.0,��
2017/06/26,00:10,0.990,1.571,1.047,1.881,1.283,0.529,0.970,0.895,�k��,6.5,��
2017/06/26,00:20,0.991,1.574,1.046,1.876,1.281,0.529,0.967,0.896,�k��,6.7,��
2017/06/26,00:30,0.992,1.571,1.045,1.879,1.282,0.530,0.967,0.896,�k��,6.5,��
2017/06/26,00:40,0.991,1.574,1.048,1.880,1.283,0.530,0.969,0.896,�k��,6.8,��
2017/06/26,00:50,0.992,1.571,1.047,1.881,1.281,0.530,0.968,0.895,�k��,7.3,��
2017/06/26,01:00,0.991,1.572,1.048,1.881,1.282,0.530,0.968,0.897,�k��,6.8,��
2017/06/26,01:10,0.991,1.576,1.047,1.881,1.282,0.529,0.968,0.895,�k��,6.7,��
2017/06/26,01:20,0.991,1.575,1.047,1.881,1.283,0.530,0.968,0.897,�k��,7.8,��
2017/06/26,01:30,0.989,1.573,1.049,1.878,1.286,0.529,0.968,0.896,�k��,7.0,��
2017/06/26,01:40,0.992,1.572,1.049,1.880,1.283,0.529,0.967,0.896,�k��,7.7,��
2017/06/26,01:50,0.992,1.572,1.044,1.879,1.284,0.528,0.970,0.896,�k��,7.3,��
2017/06/26,02:00,0.991,1.570,1.048,1.880,1.280,0.530,0.967,0.896,�k��,7.6,��
2017/06/26,02:10,0.991,1.572,1.047,1.883,1.282,0.530,0.969,0.896,�k��,6.1,��
2017/06/26,02:20,0.991,1.574,1.047,1.879,1.284,0.530,0.967,0.897,�k��,6.1,��
2017/06/26,02:30,0.990,1.575,1.046,1.878,1.282,0.529,0.969,0.897,�k��,7.2,��
2017/06/26,02:40,0.992,1.574,1.049,1.880,1.284,0.530,0.969,0.895,�k��,6.2,��
2017/06/26,02:50,0.992,1.576,1.049,1.882,1.284,0.531,0.968,0.894,�k�k��,5.3,��
2017/06/26,03:00,0.989,1.573,1.051,1.880,1.280,0.529,0.967,0.896,�k�k��,5.6,��
2017/06/26,03:10,0.987,1.576,1.050,1.881,1.283,0.529,0.969,0.898,�k�k��,5.1,��
2017/06/26,03:20,0.991,1.575,1.047,1.879,1.282,0.529,0.969,0.897,�k�k��,4.2,��
2017/06/26,03:30,0.990,1.572,1.048,1.879,1.281,0.531,0.969,0.896,�k��,2.9,��
2017/06/26,03:40,0.990,1.572,1.047,1.880,1.285,0.530,0.970,0.898,�k��,3.4,��
2017/06/26,03:50,0.989,1.573,1.047,1.879,1.280,0.528,0.970,0.896,�k��,5.3,��
2017/06/26,04:00,0.989,1.573,1.046,1.878,1.281,0.529,0.972,0.898,�k��,6.8,��
2017/06/26,04:10,0.991,1.574,1.048,1.879,1.282,0.529,0.969,0.898,�k��,6.9,��
2017/06/26,04:20,0.988,1.574,1.049,1.881,1.283,0.530,0.972,0.897,�k��,7.3,��
2017/06/26,04:30,0.992,1.572,1.048,1.878,1.281,0.529,0.970,0.895,�k��,7.6,��
2017/06/26,04:40,0.991,1.573,1.048,1.882,1.277,0.529,0.971,0.898,���k��,6.6,��
2017/06/26,04:50,0.990,1.569,1.046,1.882,1.283,0.530,0.970,0.897,���k��,6.7,��
2017/06/26,05:00,0.991,1.575,1.048,1.882,1.282,0.529,0.971,0.896,���k��,6.8,��
2017/06/26,05:10,0.989,1.572,1.048,1.883,1.282,0.529,0.971,0.898,���k��,7.5,��
2017/06/26,05:20,0.991,1.574,1.048,1.882,1.283,0.530,0.970,0.897,���k��,6.0,��
2017/06/26,05:30,0.992,1.576,1.050,1.881,1.282,0.528,0.970,0.898,���k��,4.8,��
2017/06/26,05:40,0.992,1.577,1.047,1.880,1.283,0.529,0.971,0.898,���k��,3.2,��
2017/06/26,05:50,0.990,1.577,1.048,1.883,1.282,0.530,0.971,0.897,�k��,3.1,��
2017/06/26,06:00,0.991,1.574,1.048,1.883,1.283,0.532,0.971,0.898,���k��,3.1,��
2017/06/26,06:10,0.991,1.575,1.048,1.882,1.285,0.530,0.973,0.894,�k��,4.3,��
2017/06/26,06:20,0.993,1.573,1.047,1.880,1.282,0.530,0.971,0.898,�k��,5.3,��
2017/06/26,06:30,0.990,1.573,1.047,1.887,1.284,0.531,0.974,0.897,�k��,6.1,��
2017/06/26,06:40,0.991,1.574,1.048,1.883,1.283,0.530,0.973,0.897,�k��,5.5,��
2017/06/26,06:50,0.992,1.577,1.051,1.884,1.283,0.528,0.974,0.897,�k��,6.0,��
2017/06/26,07:00,0.993,1.575,1.052,1.889,1.282,0.529,0.971,0.897,�k��,4.8,��
2017/06/26,07:10,0.989,1.577,1.051,1.886,1.283,0.529,0.973,0.897,�k��,4.2,��
2017/06/26,07:20,0.994,1.575,1.050,1.887,1.284,0.529,0.971,0.898,�k��,4.5,��
2017/06/26,07:30,0.992,1.576,1.051,1.886,1.284,0.529,0.973,0.896,�k��,5.2,��
2017/06/26,07:40,0.993,1.577,1.052,1.886,1.284,0.528,0.971,0.896,�k��,4.6,��
2017/06/26,07:50,0.994,1.576,1.049,1.888,1.283,0.529,0.973,0.894,�k��,4.9,��
2017/06/26,08:00,0.996,1.578,1.050,1.888,1.287,0.530,0.973,0.896,���k��,3.8,��
2017/06/26,08:10,0.993,1.580,1.051,1.887,1.284,0.528,0.973,0.896,���k��,3.3,��
2017/06/26,08:20,0.996,1.583,1.051,1.890,1.284,0.529,0.972,0.896,���k��,5.0,��
2017/06/26,08:30,0.994,1.580,1.050,1.891,1.283,0.529,0.972,0.896,�k��,4.2,��
2017/06/26,08:40,0.997,1.582,1.051,1.888,1.285,0.529,0.975,0.896,���k��,4.2,��
2017/06/26,08:50,0.995,1.580,1.053,1.887,1.285,0.529,0.971,0.894,�k,3.4,��
2017/06/26,09:00,0.989,1.583,1.049,1.887,1.287,0.528,0.970,0.895,�k,2.0,��
2017/06/26,09:10,0.989,1.581,1.047,1.888,1.289,0.529,0.970,0.896,�k��,1.7,��
2017/06/26,09:20,0.988,1.584,1.048,1.889,1.285,0.529,0.973,0.895,���쓌,2.6,��
2017/06/26,09:30,0.988,1.584,1.049,1.887,1.289,0.528,0.971,0.895,��,2.5,��
2017/06/26,09:40,0.987,1.586,1.052,1.888,1.290,0.527,0.972,0.896,���쓌,2.6,��
2017/06/26,09:50,0.985,1.584,1.049,1.888,1.288,0.529,0.971,0.893,���쓌,2.3,��
2017/06/26,10:00,0.985,1.584,1.051,1.889,1.290,0.528,0.970,0.895,�쓌,2.8,��
2017/06/26,10:10,0.985,1.585,1.051,1.888,1.291,0.530,0.971,0.896,�쓌,3.0,��
2017/06/26,10:20,0.985,1.585,1.048,1.886,1.290,0.528,0.973,0.896,��쓌,2.8,��
2017/06/26,10:30,0.985,1.588,1.050,1.887,1.290,0.529,0.972,0.895,��쓌,2.3,��
2017/06/26,10:40,0.986,1.587,1.052,1.889,1.293,0.529,0.971,0.894,��쓌,2.9,��
2017/06/26,10:50,0.988,1.592,1.052,1.891,1.294,0.530,0.973,0.896,��쓌,3.5,��
2017/06/26,11:00,0.994,1.589,1.050,1.888,1.293,0.528,0.974,0.895,��쓌,3.6,��
2017/06/26,11:10,0.993,1.589,1.053,1.891,1.295,0.530,0.973,0.896,�쓌,3.5,��
2017/06/26,11:20,0.992,1.590,1.050,1.890,1.296,0.529,0.973,0.897,��쓌,3.5,��
2017/06/26,11:30,0.994,1.591,1.053,1.885,1.295,0.531,0.974,0.896,��쓌,3.8,��
2017/06/26,11:40,0.995,1.592,1.051,1.889,1.296,0.531,0.973,0.897,�쓌,4.5,��
2017/06/26,11:50,0.995,1.592,1.051,1.889,1.296,0.530,0.973,0.897,��쓌,5.0,��
2017/06/26,12:00,0.995,1.588,1.056,1.889,1.297,0.530,0.973,0.895,��쓌,4.9,��
2017/06/26,12:10,1.001,1.596,1.056,1.892,1.298,0.530,0.973,0.894,�쓌,4.3,��
2017/06/26,12:20,1.000,1.595,1.054,1.892,1.295,0.531,0.977,0.894,�쓌,6.3,��
2017/06/26,12:30,1.000,1.594,1.055,1.890,1.299,0.532,0.972,0.897,�쓌,6.5,��
2017/06/26,12:40,1.003,1.595,1.056,1.889,1.299,0.530,0.974,0.894,��쓌,6.0,��
2017/06/26,12:50,1.003,1.598,1.057,1.894,1.300,0.532,0.973,0.896,��쓌,7.3,��
2017/06/26,13:00,1.002,1.597,1.057,1.893,1.298,0.531,0.973,0.897,��쓌,7.9,��
2017/06/26,13:10,1.001,1.595,1.059,1.892,1.301,0.530,0.974,0.897,��쓌,8.4,��
2017/06/26,13:20,0.999,1.597,1.056,1.892,1.300,0.532,0.975,0.896,��쓌,7.3,��
2017/06/26,13:30,0.999,1.597,1.053,1.895,1.299,0.531,0.975,0.895,��쓌,6.8,��
2017/06/26,13:40,1.003,1.597,1.055,1.892,1.300,0.532,0.975,0.897,��쓌,6.6,��
2017/06/26,13:50,1.003,1.599,1.053,1.893,1.301,0.532,0.975,0.895,��,6.3,��
2017/06/26,14:00,1.001,1.601,1.056,1.891,1.300,0.534,0.976,0.898,��,4.1,��
2017/06/26,14:10,1.003,1.598,1.054,1.894,1.302,0.532,0.975,0.898,��,6.8,��
2017/06/26,14:20,1.003,1.598,1.056,1.895,1.304,0.533,0.973,0.897,��,5.6,��
2017/06/26,14:30,1.003,1.598,1.058,1.895,1.305,0.533,0.975,0.896,��,6.7,��
2017/06/26,14:40,1.005,1.599,1.058,1.895,1.304,0.533,0.975,0.897,��,6.4,��
2017/06/26,14:50,1.001,1.600,1.057,1.895,1.301,0.534,0.976,0.896,��,6.9,��
2017/06/26,15:00,1.002,1.601,1.058,1.895,1.300,0.532,0.975,0.897,��쓌,6.8,��
2017/06/26,15:10,1.004,1.603,1.058,1.894,1.301,0.532,0.975,0.899,��,5.6,��
2017/06/26,15:20,1.003,1.601,1.055,1.895,1.304,0.532,0.974,0.897,��,6.3,��
2017/06/26,15:30,1.004,1.600,1.060,1.895,1.302,0.532,0.975,0.896,��,4.6,��
2017/06/26,15:40,1.002,1.601,1.060,1.896,1.304,0.534,0.974,0.899,��,4.5,��
2017/06/26,15:50,1.002,1.600,1.057,1.896,1.305,0.533,0.975,0.898,��,4.8,��
2017/06/26,16:00,1.004,1.598,1.061,1.895,1.301,0.533,0.977,0.898,��,5.2,��
2017/06/26,16:10,1.005,1.597,1.059,1.896,1.305,0.532,0.973,0.898,��,5.2,��
2017/06/26,16:20,1.001,1.601,1.058,1.899,1.302,0.532,0.973,0.896,��,5.9,��
2017/06/26,16:30,1.002,1.604,1.056,1.895,1.304,0.531,0.974,0.898,��,6.5,��
2017/06/26,16:40,1.003,1.600,1.054,1.894,1.304,0.532,0.974,0.898,��,5.3,��
2017/06/26,16:50,1.003,1.601,1.056,1.898,1.301,0.531,0.975,0.896,��,5.0,��
2017/06/26,17:00,1.005,1.602,1.058,1.898,1.304,0.533,0.974,0.897,��,5.2,��
2017/06/26,17:10,1.006,1.603,1.058,1.898,1.302,0.533,0.972,0.897,��,3.9,��
2017/06/26,17:20,1.003,1.603,1.056,1.899,1.302,0.531,0.973,0.896,��,3.7,��
2017/06/26,17:30,1.003,1.602,1.057,1.898,1.305,0.531,0.975,0.897,��,3.2,��
2017/06/26,17:40,1.003,1.603,1.059,1.896,1.305,0.533,0.973,0.899,��,2.2,��
2017/06/26,17:50,1.002,1.603,1.057,1.896,1.304,0.531,0.972,0.899,��,1.7,��
2017/06/26,18:00,1.000,1.604,1.058,1.895,1.301,0.532,0.973,0.898,��,1.2,��
2017/06/26,18:10,1.003,1.607,1.061,1.895,1.307,0.531,0.973,0.899,��,2.5,��
2017/06/26,18:20,1.003,1.606,1.063,1.896,1.306,0.533,0.973,0.899,��,2.9,��
2017/06/26,18:30,1.004,1.604,1.061,1.897,1.302,0.532,0.972,0.899,��쐼,2.3,��
2017/06/26,18:40,1.005,1.604,1.061,1.902,1.303,0.531,0.977,0.898,��쐼,2.6,��
2017/06/26,18:50,1.006,1.604,1.064,1.900,1.304,0.534,0.974,0.899,��쐼,2.3,��
2017/06/26,19:00,1.005,1.606,1.060,1.898,1.305,0.532,0.975,0.900,�쐼,1.4,��
2017/06/26,19:10,1.005,1.605,1.063,1.901,1.304,0.531,0.975,0.900,�k��,0.6,��
2017/06/26,19:20,1.004,1.606,1.063,1.897,1.306,0.533,0.974,0.900,�k,1.2,��
2017/06/26,19:30,1.005,1.604,1.064,1.897,1.304,0.535,0.976,0.900,�k��,0.8,��
2017/06/26,19:40,1.009,1.600,1.063,1.902,1.305,0.533,0.974,0.900,�k,2.3,��
2017/06/26,19:50,1.006,1.607,1.064,1.900,1.303,0.533,0.977,0.900,�k,3.4,��
2017/06/26,20:00,1.006,1.604,1.061,1.901,1.306,0.534,0.974,0.898,�k�k��,4.1,��
2017/06/26,20:10,1.006,1.605,1.064,1.899,1.304,0.534,0.975,0.901,�k�k��,4.0,��
2017/06/26,20:20,1.006,1.602,1.062,1.900,1.304,0.534,0.976,0.898,�k�k��,4.2,��
2017/06/26,20:30,1.006,1.604,1.061,1.900,1.303,0.534,0.976,0.898,�k,4.6,��
2017/06/26,20:40,1.007,1.601,1.063,1.899,1.303,0.534,0.976,0.901,�k�k��,5.0,��
2017/06/26,20:50,1.006,1.603,1.060,1.897,1.306,0.533,0.976,0.899,�k�k��,4.2,��
2017/06/26,21:00,1.004,1.602,1.061,1.897,1.304,0.533,0.977,0.899,�k�k��,4.5,��
2017/06/26,21:10,1.002,1.604,1.062,1.898,1.304,0.532,0.976,0.898,�k�k��,3.7,��
2017/06/26,21:20,1.007,1.601,1.062,1.899,1.304,0.531,0.976,0.899,�k,4.2,��
2017/06/26,21:30,1.005,1.604,1.063,1.896,1.305,0.533,0.975,0.899,�k�k��,4.0,��
2017/06/26,21:40,1.004,1.605,1.062,1.898,1.304,0.533,0.973,0.898,�k�k��,4.2,��
2017/06/26,21:50,1.004,1.602,1.061,1.896,1.303,0.533,0.976,0.899,�k�k��,3.3,��
2017/06/26,22:00,1.005,1.601,1.064,1.899,1.303,0.532,0.973,0.898,�k�k��,4.3,��
2017/06/26,22:10,1.004,1.603,1.062,1.897,1.303,0.534,0.975,0.899,�k�k��,4.1,��
2017/06/26,22:20,1.001,1.599,1.062,1.897,1.305,0.531,0.976,0.899,�k�k��,4.1,��
2017/06/26,22:30,1.002,1.601,1.061,1.899,1.306,0.532,0.973,0.899,�k�k��,4.6,��
2017/06/26,22:40,1.003,1.601,1.063,1.900,1.301,0.531,0.974,0.897,�k�k��,4.9,��
2017/06/26,22:50,1.003,1.604,1.062,1.898,1.304,0.533,0.975,0.897,�k�k��,4.8,��
2017/06/26,23:00,1.002,1.602,1.061,1.896,1.306,0.532,0.973,0.899,�k�k��,5.3,��
2017/06/26,23:10,1.003,1.602,1.060,1.896,1.307,0.530,0.974,0.898,�k�k��,5.1,��
2017/06/26,23:20,1.004,1.601,1.062,1.901,1.302,0.532,0.975,0.898,�k�k��,6.2,��
2017/06/26,23:30,1.003,1.601,1.059,1.899,1.300,0.531,0.973,0.900,�k�k��,6.0,��
2017/06/26,23:40,1.003,1.599,1.061,1.895,1.303,0.530,0.972,0.899,�k�k��,4.8,��
2017/06/26,23:50,1.002,1.600,1.063,1.897,1.302,0.531,0.973,0.898,�k�k��,5.4,��
